Torna al catalogo

COSMOS 2251 DEB

AttivoLEO
NORAD 33914·DEBRIS·🇷🇺 Russia

Lanciato Jun 16, 1993 da Plesetsk Cosmodrome

Loading…

Prossimi Passaggi (prossime 24 ore)

TLE

AggiornatoSource: Space-Track

Epoca: Sep 13, 2026, 12:41 UTC

1 33914U 93036DT  26256.52855051  .00000331  00000-0  27887-3 0  9995
2 33914  74.0878 282.0676 0304918 320.8804 204.7492 13.72278833878507

Traccia COSMOS 2251 DEB in tempo reale con AllMySat

Download on the App Store